Time,TemperatureF,DewpointF,PressureIn,WindDirection,WindDirectionDegrees,WindSpeedMPH,WindSpeedGustMPH,Humidity,HourlyPrecipIn,Conditions,Clouds,dailyrainin,SolarRadiationWatts/m^2,SoftwareType,DateUTC
2013-04-14 00:12:00,46.5,39.0,29.98,WNW,286,2.0,5.0,75,0.00,,,0.00,0,weatherlink.com 1.10,2013-04-14 07:12:00,
2013-04-14 00:27:00,46.5,39.0,29.97,West,281,3.0,5.0,75,0.00,,,0.00,0,weatherlink.com 1.10,2013-04-14 07:27:00,
2013-04-14 00:42:00,46.3,39.0,29.97,NW,318,4.0,7.0,75,0.00,,,0.00,0,weatherlink.com 1.10,2013-04-14 07:42:00,
2013-04-14 00:57:00,46.3,39.0,29.97,WNW,298,4.0,8.0,75,0.00,,,0.00,0,weatherlink.com 1.10,2013-04-14 07:57:00,
2013-04-14 01:12:00,46.1,39.0,29.97,NW,304,2.0,8.0,75,0.00,,,0.00,0,weatherlink.com 1.10,2013-04-14 08:12:00,
2013-04-14 01:27:00,46.0,39.0,29.97,WNW,299,4.0,8.0,75,0.00,,,0.00,0,weatherlink.com 1.10,2013-04-14 08:27:00,
2013-04-14 01:42:00,46.0,39.0,29.98,WNW,283,3.0,8.0,75,0.00,,,0.00,0,weatherlink.com 1.10,2013-04-14 08:42:00,
2013-04-14 01:57:00,45.5,38.0,29.98,NNW,346,1.0,5.0,74,0.00,,,0.00,0,weatherlink.com 1.10,2013-04-14 08:57:00,
2013-04-14 02:12:00,44.7,37.0,29.97,WNW,296,2.0,3.0,75,0.00,,,0.00,0,weatherlink.com 1.10,2013-04-14 09:12:00,
2013-04-14 02:27:00,44.9,37.0,29.97,NNW,327,2.0,8.0,74,0.00,,,0.00,0,weatherlink.com 1.10,2013-04-14 09:27:00,
2013-04-14 02:42:00,44.8,37.0,29.98,NW,323,2.0,4.0,74,0.00,,,0.00,0,weatherlink.com 1.10,2013-04-14 09:42:00,
2013-04-14 02:57:00,45.5,37.0,29.97,NW,306,0.0,8.0,73,0.00,,,0.00,0,weatherlink.com 1.10,2013-04-14 09:57:00,
2013-04-14 03:12:00,45.1,37.0,29.97,North,11,3.0,7.0,73,0.00,,,0.00,0,weatherlink.com 1.10,2013-04-14 10:12:00,
2013-04-14 03:28:00,45.0,36.0,29.97,North,351,1.0,5.0,72,0.00,,,0.00,0,weatherlink.com 1.10,2013-04-14 10:28:00,
2013-04-14 03:43:00,45.1,37.0,29.97,NNW,346,1.0,6.0,72,0.00,,,0.00,0,weatherlink.com 1.10,2013-04-14 10:43:00,
2013-04-14 03:58:00,43.6,36.0,29.97,North,11,3.0,4.0,74,0.00,,,0.00,0,weatherlink.com 1.10,2013-04-14 10:58:00,
2013-04-14 04:13:00,43.8,36.0,29.97,NE,34,2.0,7.0,75,0.00,,,0.00,0,weatherlink.com 1.10,2013-04-14 11:13:00,
2013-04-14 04:28:00,42.9,36.0,29.97,NNE,17,1.0,4.0,75,0.00,,,0.00,0,weatherlink.com 1.10,2013-04-14 11:28:00,
2013-04-14 04:43:00,44.0,36.0,29.97,NNW,346,0.0,4.0,74,0.00,,,0.00,0,weatherlink.com 1.10,2013-04-14 11:43:00,
2013-04-14 04:58:00,44.1,36.0,29.96,North,9,2.0,5.0,72,0.00,,,0.00,0,weatherlink.com 1.10,2013-04-14 11:58:00,
2013-04-14 05:13:00,43.5,35.0,29.96,North,9,0.0,3.0,72,0.00,,,0.00,0,weatherlink.com 1.10,2013-04-14 12:13:00,
2013-04-14 05:28:00,42.2,34.0,29.96,NNE,27,1.0,5.0,74,0.00,,,0.00,0,weatherlink.com 1.10,2013-04-14 12:28:00,
2013-04-14 05:43:00,41.8,35.0,29.96,NNE,31,2.0,3.0,76,0.00,,,0.00,0,weatherlink.com 1.10,2013-04-14 12:43:00,
2013-04-14 05:58:00,42.7,35.0,29.96,North,360,3.0,4.0,74,0.00,,,0.00,0,weatherlink.com 1.10,2013-04-14 12:58:00,
2013-04-14 06:13:00,42.9,35.0,29.95,North,360,1.0,1.0,73,0.00,,,0.00,0,weatherlink.com 1.10,2013-04-14 13:13:00,
2013-04-14 06:28:00,41.5,34.0,29.95,NNE,24,1.0,3.0,74,0.00,,,0.00,0,weatherlink.com 1.10,2013-04-14 13:28:00,
2013-04-14 06:43:00,42.1,35.0,29.95,North,360,5.0,5.0,75,0.00,,,0.00,5,weatherlink.com 1.10,2013-04-14 13:43:00,
2013-04-14 06:58:00,43.0,35.0,29.96,NNW,348,3.0,3.0,72,0.00,,,0.00,12,weatherlink.com 1.10,2013-04-14 13:58:00,
2013-04-14 07:13:00,42.9,35.0,29.96,NNE,23,2.0,5.0,74,0.00,,,0.00,19,weatherlink.com 1.10,2013-04-14 14:13:00,
2013-04-14 07:28:00,44.0,35.0,29.96,North,355,1.0,2.0,71,0.00,,,0.00,25,weatherlink.com 1.10,2013-04-14 14:28:00,
2013-04-14 07:43:00,43.7,35.0,29.97,North,355,0.0,1.0,71,0.00,,,0.00,137,weatherlink.com 1.10,2013-04-14 14:43:00,
2013-04-14 07:58:00,44.0,36.0,29.98,North,355,0.0,2.0,74,0.00,,,0.00,225,weatherlink.com 1.10,2013-04-14 14:58:00,
2013-04-14 08:13:00,45.2,37.0,29.98,SSW,196,2.0,3.0,72,0.00,,,0.00,285,weatherlink.com 1.10,2013-04-14 15:13:00,
2013-04-14 08:28:00,46.9,37.0,29.98,SSW,196,0.0,2.0,69,0.00,,,0.00,345,weatherlink.com 1.10,2013-04-14 15:28:00,
2013-04-14 08:43:00,48.4,37.0,29.98,SSW,206,0.0,3.0,66,0.00,,,0.00,390,weatherlink.com 1.10,2013-04-14 15:43:00,
2013-04-14 08:58:00,49.7,38.0,29.98,SSW,194,4.0,5.0,65,0.00,,,0.00,446,weatherlink.com 1.10,2013-04-14 15:58:00,
2013-04-14 09:13:00,50.8,39.0,29.98,South,184,1.0,4.0,64,0.00,,,0.00,499,weatherlink.com 1.10,2013-04-14 16:13:00,
2013-04-14 09:28:00,51.7,40.0,29.98,West,271,10.0,11.0,65,0.00,,,0.00,548,weatherlink.com 1.10,2013-04-14 16:28:00,
2013-04-14 09:44:00,51.8,41.0,29.98,West,266,6.0,12.0,67,0.00,,,0.00,596,weatherlink.com 1.10,2013-04-14 16:44:00,
2013-04-14 09:59:00,51.6,42.0,29.98,SW,229,4.0,11.0,69,0.00,,,0.00,642,weatherlink.com 1.10,2013-04-14 16:59:00,
2013-04-14 10:14:00,51.9,42.0,29.98,West,275,6.0,12.0,69,0.00,,,0.00,684,weatherlink.com 1.10,2013-04-14 17:14:00,
2013-04-14 10:29:00,52.1,42.0,29.98,NW,326,12.0,13.0,69,0.00,,,0.00,724,weatherlink.com 1.10,2013-04-14 17:29:00,
2013-04-14 10:44:00,52.3,42.0,29.98,SW,229,7.0,13.0,68,0.00,,,0.00,761,weatherlink.com 1.10,2013-04-14 17:44:00,
2013-04-14 10:59:00,52.2,42.0,29.98,WNW,296,10.0,15.0,68,0.00,,,0.00,793,weatherlink.com 1.10,2013-04-14 17:59:00,
2013-04-14 11:14:00,52.1,42.0,29.97,WNW,300,8.0,16.0,69,0.00,,,0.00,821,weatherlink.com 1.10,2013-04-14 18:14:00,
2013-04-14 11:29:00,51.8,42.0,29.97,West,265,7.0,20.0,70,0.00,,,0.00,849,weatherlink.com 1.10,2013-04-14 18:29:00,
2013-04-14 11:44:00,51.5,42.0,29.97,West,277,7.0,18.0,71,0.00,,,0.00,874,weatherlink.com 1.10,2013-04-14 18:44:00,
2013-04-14 11:59:00,51.4,42.0,29.98,WNW,284,11.0,18.0,71,0.00,,,0.00,893,weatherlink.com 1.10,2013-04-14 18:59:00,
2013-04-14 12:14:00,51.4,42.0,29.97,WNW,296,13.0,20.0,70,0.00,,,0.00,909,weatherlink.com 1.10,2013-04-14 19:14:00,
2013-04-14 12:29:00,51.3,42.0,29.97,WSW,255,5.0,16.0,71,0.00,,,0.00,919,weatherlink.com 1.10,2013-04-14 19:29:00,
2013-04-14 12:44:00,50.9,44.0,29.98,West,269,8.0,21.0,77,0.00,,,0.00,928,weatherlink.com 1.10,2013-04-14 19:44:00,
2013-04-14 12:59:00,51.0,43.0,29.96,WNW,286,6.0,18.0,74,0.00,,,0.00,933,weatherlink.com 1.10,2013-04-14 19:59:00,
2013-04-14 13:14:00,50.8,43.0,29.97,West,273,7.0,20.0,75,0.00,,,0.00,933,weatherlink.com 1.10,2013-04-14 20:14:00,
2013-04-14 13:29:00,50.9,43.0,29.97,WNW,291,13.0,20.0,75,0.00,,,0.00,930,weatherlink.com 1.10,2013-04-14 20:29:00,
2013-04-14 13:44:00,51.0,43.0,29.98,West,273,11.0,22.0,75,0.00,,,0.00,926,weatherlink.com 1.10,2013-04-14 20:44:00,
2013-04-14 13:59:00,51.5,44.0,29.97,SW,232,10.0,15.0,75,0.00,,,0.00,932,weatherlink.com 1.10,2013-04-14 20:59:00,
2013-04-14 14:14:00,51.2,44.0,29.97,WNW,293,13.0,19.0,76,0.00,,,0.00,902,weatherlink.com 1.10,2013-04-14 21:14:00,
2013-04-14 14:29:00,51.0,43.0,29.97,WNW,296,7.0,20.0,75,0.00,,,0.00,642,weatherlink.com 1.10,2013-04-14 21:29:00,
2013-04-14 14:44:00,51.0,44.0,29.98,WNW,282,12.0,20.0,76,0.00,,,0.00,881,weatherlink.com 1.10,2013-04-14 21:44:00,
2013-04-14 14:59:00,51.3,44.0,29.97,WNW,288,8.0,16.0,76,0.00,,,0.00,995,weatherlink.com 1.10,2013-04-14 21:59:00,
2013-04-14 15:14:00,51.5,44.0,29.97,NNW,330,5.0,17.0,76,0.00,,,0.00,788,weatherlink.com 1.10,2013-04-14 22:14:00,
2013-04-14 15:29:00,51.0,44.0,29.97,West,281,6.0,17.0,76,0.00,,,0.00,717,weatherlink.com 1.10,2013-04-14 22:29:00,
2013-04-14 15:44:00,50.9,44.0,29.96,West,262,12.0,16.0,76,0.00,,,0.00,654,weatherlink.com 1.10,2013-04-14 22:44:00,
2013-04-14 15:59:00,50.6,44.0,29.96,West,272,5.0,16.0,77,0.00,,,0.00,483,weatherlink.com 1.10,2013-04-14 22:59:00,
2013-04-14 16:14:00,50.6,44.0,29.95,WNW,285,6.0,15.0,77,0.00,,,0.00,490,weatherlink.com 1.10,2013-04-14 23:14:00,
2013-04-14 16:29:00,50.1,43.0,29.95,West,265,12.0,16.0,77,0.00,,,0.00,364,weatherlink.com 1.10,2013-04-14 23:29:00,
2013-04-14 16:44:00,50.2,44.0,29.95,West,281,6.0,14.0,78,0.00,,,0.00,304,weatherlink.com 1.10,2013-04-14 23:44:00,
2013-04-14 16:59:00,50.4,44.0,29.94,West,268,7.0,14.0,78,0.00,,,0.00,327,weatherlink.com 1.10,2013-04-14 23:59:00,
2013-04-14 17:14:00,50.0,43.0,29.94,WSW,254,6.0,14.0,78,0.00,,,0.00,223,weatherlink.com 1.10,2013-04-15 00:14:00,
2013-04-14 17:29:00,49.6,43.0,29.94,WSW,248,4.0,10.0,79,0.00,,,0.00,213,weatherlink.com 1.10,2013-04-15 00:29:00,
2013-04-14 17:44:00,49.4,43.0,29.94,NW,308,10.0,10.0,79,0.00,,,0.00,179,weatherlink.com 1.10,2013-04-15 00:44:00,
2013-04-14 17:59:00,49.2,43.0,29.93,WNW,296,1.0,9.0,79,0.00,,,0.00,139,weatherlink.com 1.10,2013-04-15 00:59:00,
2013-04-14 18:14:00,49.0,43.0,29.93,WSW,247,3.0,10.0,79,0.00,,,0.00,95,weatherlink.com 1.10,2013-04-15 01:14:00,
2013-04-14 18:29:00,48.8,43.0,29.93,West,272,4.0,12.0,79,0.00,,,0.00,62,weatherlink.com 1.10,2013-04-15 01:29:00,
2013-04-14 18:44:00,48.6,43.0,29.93,WSW,242,3.0,9.0,80,0.00,,,0.00,40,weatherlink.com 1.10,2013-04-15 01:44:00,
2013-04-14 19:00:00,48.4,43.0,29.92,West,278,4.0,9.0,80,0.00,,,0.00,40,weatherlink.com 1.10,2013-04-15 02:00:00,
2013-04-14 19:15:00,48.3,43.0,29.92,West,275,1.0,7.0,81,0.00,,,0.00,16,weatherlink.com 1.10,2013-04-15 02:15:00,
2013-04-14 19:30:00,48.2,44.0,29.91,NW,313,2.0,7.0,84,0.00,,,0.00,18,weatherlink.com 1.10,2013-04-15 02:30:00,
2013-04-14 19:45:00,48.0,42.0,29.90,West,280,3.0,8.0,81,0.00,,,0.00,5,weatherlink.com 1.10,2013-04-15 02:45:00,
2013-04-14 20:00:00,47.9,43.0,29.90,WNW,291,2.0,4.0,82,0.00,,,0.00,0,weatherlink.com 1.10,2013-04-15 03:00:00,
2013-04-14 20:15:00,47.8,43.0,29.90,SW,235,2.0,3.0,82,0.00,,,0.00,0,weatherlink.com 1.10,2013-04-15 03:15:00,
2013-04-14 20:30:00,47.7,43.0,29.90,West,259,1.0,3.0,83,0.00,,,0.00,0,weatherlink.com 1.10,2013-04-15 03:30:00,
2013-04-14 20:45:00,47.5,43.0,29.91,West,273,0.0,4.0,83,0.00,,,0.00,0,weatherlink.com 1.10,2013-04-15 03:45:00,
2013-04-14 21:00:00,47.2,42.0,29.91,West,267,0.0,4.0,83,0.00,,,0.00,0,weatherlink.com 1.10,2013-04-15 04:00:00,
2013-04-14 21:15:00,47.0,42.0,29.91,SW,234,1.0,3.0,84,0.00,,,0.00,0,weatherlink.com 1.10,2013-04-15 04:15:00,
2013-04-14 21:30:00,46.9,42.0,29.91,WSW,246,1.0,4.0,84,0.00,,,0.00,0,weatherlink.com 1.10,2013-04-15 04:30:00,
2013-04-14 21:45:00,46.7,42.0,29.91,West,273,2.0,7.0,84,0.00,,,0.00,0,weatherlink.com 1.10,2013-04-15 04:45:00,
2013-04-14 22:00:00,46.3,42.0,29.91,West,279,0.0,5.0,84,0.00,,,0.00,0,weatherlink.com 1.10,2013-04-15 05:00:00,
2013-04-14 22:15:00,46.2,42.0,29.91,West,279,1.0,2.0,84,0.00,,,0.00,0,weatherlink.com 1.10,2013-04-15 05:15:00,
2013-04-14 22:30:00,45.8,41.0,29.91,West,281,0.0,1.0,84,0.00,,,0.00,0,weatherlink.com 1.10,2013-04-15 05:30:00,
2013-04-14 22:45:00,45.0,41.0,29.91,West,277,2.0,5.0,84,0.00,,,0.00,0,weatherlink.com 1.10,2013-04-15 05:45:00,
2013-04-14 23:00:00,45.6,41.0,29.91,WNW,297,1.0,4.0,84,0.00,,,0.00,0,weatherlink.com 1.10,2013-04-15 06:00:00,
2013-04-14 23:15:00,45.5,41.0,29.91,WNW,290,3.0,6.0,85,0.00,,,0.00,0,weatherlink.com 1.10,2013-04-15 06:15:00,
2013-04-14 23:30:00,45.6,41.0,29.91,NW,313,0.0,5.0,84,0.00,,,0.00,0,weatherlink.com 1.10,2013-04-15 06:30:00,
2013-04-14 23:45:00,44.9,41.0,29.91,NNE,29,0.0,3.0,85,0.00,,,0.00,0,weatherlink.com 1.10,2013-04-15 06:45:00,